P/2015 CD60 ( LINEAR ) 2024

Japanese version
Home page
Updated on February 10, 2025

---------------------------------------------------------------------

* Profile

* Pictures

* Orbital Elements

Epoch 2025 Jan. 5.0 TT = JDT 2460680.5                                          
T 2024 Dec. 18.93469 TT                                 Veres                   
q   1.9643489            (2000.0)            P               Q                  
n   0.10004451     Peri.  179.08789     -0.14516356     -0.95812003             
a   4.5955824      Node   279.22995     +0.90617288     -0.02858567             
e   0.5725571      Incl.   14.48255     +0.39721312     -0.28493662             
P   9.85                                                                        
From 210 observations 2014 Nov. 25-2025 Jan. 7, mean residual 0".4.             

* Magnitudes Graph

        m1 = 8.5 + 5 log d + 30 log r(t - 30)

---------------------------------------------------------------------

The orbital elements are published on M.P.E.C. 2025-A142.
The magnitudes graphs are made with Comet for Windows.

---------------------------------------------------------------------

Copyright(C) Seiichi Yoshida (comet@aerith.net). All rights reserved.